Weather in Roseville

United States     38°47′23″N   121°17′01″W
temp.,
°C
wind,
m/s
gust,
m/s
humid.,
%
clouds,
%
prec.,
mm/h
press.,
hPa
HPBL,
m
18 september, sat
sat1823:00+18sse46590 0.0 1014272
02:00+15sse47780 0.0 1015294
05:00+14sse48780 0.0 1015326
08:00+15sse487613 0.0 1016436
11:00+21s57570 0.0 1016864
14:00+26ssw45440 0.0 10161411
17:00+25ssw45471 0.0 10151249
20:00+21sw356431 0.0 1016466
19 september, sun
sun1923:00+19sse3574100 0.3 1017411
02:00+18s3683100 0.6 1017480
05:00+18ssw258673 0.6 1017436
08:00+18s127976 0.0 1017470
11:00+23nw11517 0.1 10171346
14:00+26wnw22305 0.0 10151910
17:00+27nw33260 0.0 10131932
20:00+23nnw39280 0.0 1014392
20 september, mon
mon2023:00+19nne233619 0.0 1014100
02:00+17nne12422 0.0 101380
05:00+15n12444 0.0 101393
08:00+17nnw12370 0.0 1014129
11:00+25wnw22220 0.0 1014582
14:00+31w22140 0.0 1012934
17:00+33s12120 0.0 10111185
20:00+27se11180 0.0 101212
21 september, tue
tue2123:00+23e11230 0.0 101319
02:00+21e22240 0.0 101436
05:00+20ne11240 0.0 101513
08:00+21nne12220 0.0 101773
11:00+29w21130 0.0 1017468
14:00+35wsw22110 0.0 1015805
17:00+36w12100 0.0 10141066
20:00+29se11140 0.0 101512
22 september, wed
wed2223:00+25ese22200 0.0 101652
02:00+23ese22244 0.0 101651
05:00+22ese112622 0.0 101729
08:00+23e11250 0.0 101847
11:00+30wsw21165 0.0 1017476
14:00+35wsw22130 0.0 10151041
17:00+36wsw231285 0.0 10121459
20:00+29ssw24205 0.0 1013133